{"data":{"norad_id":56095,"epoch":"2026-05-24T20:33:56.116800Z","epoch_age_seconds":83322,"freshness":"FRESH","line1":"1 56095U 23046C   26144.85689950  .00000447  00000+0  25788-4 0  9995","line2":"2 56095  43.0052  91.1222 0001483 273.5783  86.4899 15.27579701173682","mean_motion":15.27579701,"eccentricity":0.0001483,"inclination_deg":43.0052,"raan_deg":91.1222,"arg_perigee_deg":273.5783,"mean_anomaly_deg":86.4899,"bstar":2.5788e-5,"rev_number":17368,"period_min":94.266767164904,"perigee_km":482.03247732255,"apogee_km":484.06750538418,"semimajor_km":6861.1869913534,"source":"CELESTRAK","updated_at":"2026-05-25T13:38:17.953267Z"}}